Content
SEND FEEDBACK

Daily
Averages
Monthly
Summary
United States of America

HAINES, ALASKA


Home > North America > United States > Alaska
Elevation: 1372 feet     Latitude: 59 15N     Longitude: 135 31W

WEATHER
 
SELECT A DAY
Number of Records: 191,904;   Date Range: 6/13/96 - 8/12/14
 
SHARE

PRINT THIS DATA

[ ← Previous Day ]
WEATHER ALMANAC - JANUARY 31, 2013
[ Next Day → ]
[ °C ]   °F
Weather ElementAverageHighLow
Temperature26.2 °F30.2 °F (2:34 pm)18 °F (1:54 am)
Dewpoint24.3 °F30 °F (3:54 pm)14 °F (1:54 am)
Humidity92.5 %100 % (3:54 pm)81 % (11:54 am)
Barometer29.99 in30.11 in (11:54 pm)29.89 in (3:54 am)
Wind Speed7.2 mph17.3 mph (1:54 am)
Weather ElementAverage
Visibility5.7 mi
Wind DirectionSSW (197.8 °)

Weather ElementTotal
Precipitation---
Heating Degree Days40.9 (Base 65)
Averaged from 37 records on January 31, 2013
WEATHER CONDITIONS BREAKOUT
WIND DIRECTION BREAKOUT
WEATHER BY HOUR - JANUARY 31, 2013
[ °C ]   °F
Local TimeTemperatureDewpointHumidityBarometerVisibilityWind DirectionWind SpeedGust SpeedPrecipitationEventsConditions
1:54 AM18.0 °F14.0 °F84 %29.92 in10.0 miWNW (290°)17.3 mphOvercast
2:54 AM18.0 °F15.1 °F88 %29.91 in10.0 miWNW (290°)17.3 mphOvercast
3:54 AM18.0 °F15.1 °F88 %29.89 in10.0 miWNW (290°)17.3 mphOvercast
4:54 AM18.0 °F15.1 °F88 %29.90 in10.0 miWNW (290°)17.3 mphOvercast
5:54 AM19.9 °F16.0 °F85 %29.90 in10.0 miWNW (290°)15.0 mphOvercast
6:54 AM19.0 °F16.0 °F88 %29.91 in10.0 miWNW (290°)12.7 mphOvercast
7:54 AM21.9 °F19.0 °F89 %29.91 in10.0 miCalmOvercast
8:54 AM21.0 °F18.0 °F88 %29.92 in10.0 miWest (280°)12.7 mphOvercast
9:54 AM19.9 °F17.1 °F89 %29.94 in10.0 miWNW (290°)11.5 mphOvercast
10:54 AM21.9 °F18.0 °F85 %29.95 in10.0 miWNW (290°)8.1 mphOvercast
11:54 AM26.1 °F21.0 °F81 %29.97 in10.0 miWNW (290°)4.6 mphOvercast
12:54 PM26.1 °F21.9 °F84 %29.97 in10.0 miWest (270°)3.5 mphOvercast
1:54 PM27.0 °F23.0 °F85 %29.98 in3.0 miCalmOvercast
2:23 PM28.4 °F26.6 °F93 %29.97 in6.0 miESE (110°)3.5 mphOvercast
2:34 PM30.2 °F26.6 °F86 %29.97 in5.0 miESE (120°)4.6 mphOvercast
2:42 PM30.2 °F28.4 °F93 %29.97 in4.0 miSE (130°)5.8 mphOvercast
2:54 PM28.0 °F27.0 °F96 %29.99 in3.0 miSSE (150°)5.8 mphOvercast
2:57 PM28.4 °F26.6 °F93 %29.98 in2.5 miESE (120°)4.6 mphOvercast
3:07 PM30.2 °F28.4 °F93 %29.98 in1.2 miSE (130°)3.5 mph0.00 inSnowLight Snow
3:20 PM30.2 °F28.4 °F93 %29.98 in1.2 miESE (110°)3.5 mph0.00 inOvercast
3:54 PM30.0 °F30.0 °F100 %30.00 in1.5 miESE (110°)5.8 mph0.00 inOvercast
4:23 PM28.4 °F28.4 °F100 %30.00 in3.0 miWNW (290°)5.8 mphOvercast
4:38 PM30.2 °F28.4 °F93 %30.01 in4.0 miCalmOvercast
5:06 PM30.2 °F28.4 °F93 %30.00 in3.0 miCalmOvercast
5:29 PM28.4 °F28.4 °F100 %30.01 in2.0 miCalmOvercast
5:46 PM28.4 °F28.4 °F100 %30.01 in4.0 miCalmOvercast
5:54 PM28.9 °F28.9 °F100 %30.01 in4.0 miCalmOvercast
6:54 PM28.0 °F27.0 °F96 %30.03 in5.0 miWNW (290°)4.6 mphOvercast
7:05 PM28.4 °F26.6 °F93 %30.02 in4.0 miWNW (300°)5.8 mphOvercast
7:39 PM28.4 °F28.4 °F100 %30.03 in2.5 miWNW (290°)9.2 mphOvercast
7:54 PM28.0 °F27.0 °F96 %30.05 in3.0 miWNW (290°)11.5 mphOvercast
8:54 PM28.0 °F27.0 °F96 %30.05 in6.0 miWNW (290°)6.9 mph0.00 inOvercast
9:44 PM28.4 °F28.4 °F100 %30.06 in3.0 miWNW (290°)10.4 mph0.00 inRainLight Freezing Rain
9:54 PM28.9 °F28.0 °F96 %30.07 in3.0 miWest (280°)6.9 mph0.00 inRainLight Freezing Rain
10:14 PM28.4 °F28.4 °F100 %30.07 in4.0 miWest (280°)10.4 mph0.00 inOvercast
10:54 PM28.9 °F28.0 °F96 %30.09 in4.0 miWNW (290°)11.5 mph0.00 inOvercast
11:54 PM28.9 °F28.0 °F96 %30.11 in9.0 miWNW (290°)8.1 mphOvercast
Hourly data recorded from PAHN, located miles away from Haines, Alaska







STORIES FROM OUR PARTNERS